Weather in Kulitskaya

Russia / Tver Oblast     56°58′39″N   35°40′58″E
temp.,
°C
wind,
m/s
gust,
m/s
humid.,
%
clouds,
%
prec.,
mm/h
press.,
hPa
HPBL,
m
6 march, sat
sat600:00−9wnw259356 0.0 1014120
03:00−10wnw259528 0.0 1016104
06:00−10w369487 0.0 1016186
09:00−8wnw369094 0.2 1017449
12:00−6nw357397 0.1 10171002
15:00−5wnw356799 0.2 10151131
18:00−7sw237958 0.1 101345
21:00−7sw4118045 0.1 1011386
7 march, sun
sun700:00−6ssw61380100 0.0 1006778
03:00−5sw71392100 0.8 10011050
06:00−3sw71394100 1.5 9951063
09:00−2sw71387100 2.4 9911056
12:00−5wnw101480100 1.8 9911106
15:00−4wnw71257100 1.9 9932055
18:00−6wsw299167 0.1 993709
21:00−5wsw599183 1.9 992741
8 march, mon
mon800:00−7wnw3695100 0.4 992243
03:00−8n3792100 1.4 994381
06:00−12nw4129187 0.0 995351
09:00−10nw6128870 0.1 998757
12:00−7nw6983100 0.2 10011013
15:00−7nnw6982100 0.3 10041096
18:00−9nnw4985100 0.1 1006804
21:00−11nnw4992100 0.3 1009677
9 march, tue
tue900:00−14nnw4892100 0.1 1012514
03:00−17nnw3895100 0.1 1014346
06:00−19nw379690 0.0 1016226
09:00−19nw369164 0.0 1018331
12:00−14nw347962 0.0 1018494
15:00−11nw347141 0.0 1018753
18:00−12nne1185100 0.0 101720
21:00−15ene2492100 0.0 1018127
10 march, wed
wed1000:00−18ene369799 0.0 1019159
03:00−21ne369681 0.0 1020151
06:00−23ne25970 0.0 1022140
09:00−22nne35910 0.0 1024254
12:00−18ne34800 0.0 1025422
15:00−15nne23730 0.0 1025601
18:00−18ne248733 0.0 1025122
21:00−21ne239241 0.0 102758